Weather History for Pian Rosa, Italy

Change the Weather History Date:

Saturday, June 29, 2013

  Actual Average Record
Temperature  
Mean Temperature 24 °F -  
Max Temperature 27 °F 38 °F 50 °F (1998)
Min Temperature 20 °F 29 °F - (1997)
Degree Days  
Heating Degree Days 42    
Moisture  
Dew Point 23 °F    
Average Humidity 89    
Maximum Humidity 100    
Minimum Humidity 58    
Precipitation  
Precipitation 0.04 in - - ()
Sea Level Pressure  
Sea Level Pressure 30.29 in    
Wind  
Wind Speed 23 mph ()    
Max Wind Speed 40 mph    
Max Gust Speed -    
Visibility 1.1 miles    
Events Fog , Snow    
Averages and records for this station are not official NWS values.
T = Trace of Precipitation, MM = Missing Value Source: Averaged Metar Reports

Daily Weather History Graph

Daily Weather History Graph

Search for Another Location

Airport:

Trip Planner

Search our weather history database for the weather conditions in past years. The results will help you decide how hot, cold, wet, or windy it might be!

Date:

Astronomy

Jun. 29, 2013 Rise Set
Actual Time 5:41 AM CEST 9:23 PM CEST
Civil Twilight 5:03 AM CEST 10:01 PM CEST
Nautical Twilight 4:11 AM CEST 10:53 PM CEST
Astronomical Twilight 3:00 AM CEST 12:03 AM CEST
Moon 12:22 AM CEST (6/29) 12:59 PM CEST (6/29)
Length of Visible Light 16h 58m
Length of Day
15h 42m
Waning Gibbous, 58% of the Moon is Illuminated
Jun 29
Waning Gibbous
Jun 30
Last Quarter
Jul 8
New
Jul 16
First Quarter
Jul 22
Full

Hourly Weather History & Observations

Time (CEST) Temp. Windchill Dew Point Humidity Pressure Visibility Wind Dir Wind Speed Gust Speed Precip Events Conditions
12:55 AM 21.2 °F 5.6 °F 19.4 °F 93% 30.27 in 0.1 mi NE 20.7 mph - N/A Fog Light Freezing Fog
1:55 AM 21.2 °F 5.6 °F 19.4 °F 93% 30.27 in 0.5 mi NNE 20.7 mph - N/A Fog Light Freezing Fog
2:00 AM 21 °F - 20 °F 93%  in 0 mi NNE 20.7 mph - - Fog Heavy Fog
2:55 AM 21.2 °F 3.0 °F 19.4 °F 93% 30.24 in 0.5 mi NE 29.9 mph - N/A Fog Light Freezing Fog
3:55 AM 23.0 °F 6.0 °F 15.8 °F 74% 30.24 in 0.5 mi NNE 27.6 mph - N/A Fog Light Freezing Fog
4:55 AM 23.0 °F 6.0 °F 14.0 °F 68% 30.24 in 6.2 mi North 27.6 mph - N/A   Partly Cloudy
5:00 AM 23 °F - 14 °F 58%  in 9 mi North 27.6 mph - - Fog Light Fog
5:55 AM 24.8 °F 7.6 °F 17.6 °F 74% 30.24 in 6.2 mi NNE 31.1 mph - N/A   Scattered Clouds
6:55 AM 24.8 °F 8.7 °F 21.2 °F 86% 30.27 in 6.2 mi NE 26.5 mph - N/A   Scattered Clouds
7:55 AM 26.6 °F 11.7 °F 24.8 °F 93% 30.27 in 0.5 mi NE 24.2 mph - N/A Fog , Snow Light Snow
8:00 AM 27 °F - 25 °F 90%  in 0 mi NE 24.2 mph - - Snow Light Snow
8:55 AM 26.6 °F 11.1 °F 26.6 °F 100% 30.27 in 0.1 mi NE 26.5 mph - N/A Fog , Snow Light Snow
9:55 AM 26.6 °F 10.6 °F 24.8 °F 93% 30.27 in 0.2 mi North 28.8 mph - N/A Fog , Snow Light Snow
10:55 AM 26.6 °F 11.4 °F 26.6 °F 100% 30.27 in 0.2 mi North 25.3 mph - N/A Fog , Snow Light Snow
11:00 AM 27 °F - 26 °F 94%  in 0 mi North 25.3 mph - - Snow Light Snow
11:55 AM 26.6 °F 12.0 °F 26.6 °F 100% 30.30 in 0.2 mi NNE 23.0 mph - N/A Fog , Snow Light Snow
12:55 PM 26.6 °F 10.6 °F 24.8 °F 93% 30.30 in 0.2 mi NNE 28.8 mph - N/A Fog , Snow Light Snow
1:55 PM 26.6 °F 12.0 °F 26.6 °F 100% 30.30 in 0.2 mi NE 23.0 mph - N/A Fog , Snow Light Snow
2:00 PM 27 °F - 26 °F 94%  in 0 mi NE 23.0 mph - - Snow Light Snow
2:55 PM 28.4 °F 13.0 °F 26.6 °F 93% 30.30 in 0.2 mi North 28.8 mph - N/A Fog , Snow Light Snow
3:55 PM 26.6 °F 9.6 °F 24.8 °F 93% 30.27 in 0.3 mi NNE 33.4 mph - N/A Fog , Snow Light Snow
4:55 PM 26.6 °F 8.3 °F 24.8 °F 93% 30.30 in 0.3 mi North 40.3 mph - N/A Fog , Snow Light Snow
5:00 PM 27 °F - 25 °F 90%  in 0 mi North 40.3 mph - - Snow Light Snow
5:55 PM 26.6 °F 10.8 °F 24.8 °F 93% 30.30 in 0.3 mi NE 27.6 mph - N/A Fog , Snow Light Snow
6:55 PM 26.6 °F 13.8 °F 24.8 °F 93% 30.30 in 0.3 mi NE 17.3 mph - N/A Fog , Snow Light Snow
7:55 PM 26.6 °F 10.6 °F 24.8 °F 93% 30.33 in 0.3 mi NE 28.8 mph - N/A Fog , Snow Light Snow
8:00 PM 27 °F - 25 °F 87%  in 0 mi NE 28.8 mph - - Snow Light Snow
8:55 PM 26.6 °F 9.8 °F 23.0 °F 86% 30.33 in 0.3 mi NNE 32.2 mph - N/A Fog Light Freezing Fog
9:55 PM 26.6 °F 14.7 °F 23.0 °F 86% 30.33 in 0.5 mi NNE 15.0 mph - N/A Fog Light Freezing Fog
10:55 PM 26.6 °F 16.2 °F 23.0 °F 86% 30.33 in 0.5 mi NNE 11.5 mph - N/A Fog Light Freezing Fog
11:00 PM 26 °F - 23 °F 85%  in 0 mi NNE 11.5 mph - - Fog Heavy Fog
11:55 PM 26.6 °F 16.2 °F 23.0 °F 86% 30.33 in 0.5 mi NE 11.5 mph - N/A Fog Light Freezing Fog